Date String (YYYY-MM-DD hh:mm:ss) UTC,Instrument flags,Ambient pressure (hPa),Sample flow (lpm),Bypass flow (lpm),Sample temperature (°C),Ambient temperature (°C),ASC tube jacket temperature (°C),LED temperature (°C),Box temperature (°C),Sample RH (%),Span deviation,Mass concentration (μg/m³),Mass concentration (μg/m³),Mass concentration (μg/m³)
DateTimeUTC,F1_M11,P_M11,Q1_M11,Q2_M11,T1_M11,T2_M11,T3_M11,T4_M11,T5_M11,U1_M11,ZSPAN_M11,X0_M11,X2_M11,X1_M11
2021-10-13 08:00:00,,0812.0,4.98,0.00,22.7,22.1,00.0,31.8,24.4,21.0,0000.0,0005.66,0002.82,0002.18
2021-10-13 08:01:00,,0811.8,5.00,0.00,22.7,22.1,00.0,31.8,24.5,21.0,0000.0,0005.57,0002.84,0002.23
2021-10-13 08:02:00,,0811.8,5.00,0.00,22.7,22.1,00.0,31.9,24.5,21.2,0000.0,0005.24,0002.90,0002.28
2021-10-13 08:03:00,,0811.8,5.00,0.00,22.7,22.1,00.0,31.9,24.5,22.9,0000.0,0005.08,0002.98,0002.35
2021-10-13 08:04:00,,0811.9,5.01,0.00,22.7,22.1,00.0,31.9,24.5,23.2,0000.0,0004.81,0003.05,0002.39
2021-10-13 08:05:00,,0812.0,5.01,0.00,22.7,22.2,00.0,31.9,24.5,21.6,0000.0,0005.02,0003.04,0002.42
2021-10-13 08:06:00,,0812.0,4.99,0.00,22.7,22.2,00.0,31.9,24.6,21.2,0000.0,0005.19,0003.03,0002.44
2021-10-13 08:07:00,,0812.0,5.01,0.00,22.7,22.2,00.0,31.9,24.6,21.1,0000.0,0005.78,0003.04,0002.45
2021-10-13 08:08:00,,0811.8,4.99,0.00,22.8,22.3,00.0,31.9,24.6,21.0,0000.0,0006.40,0003.07,0002.46
2021-10-13 08:09:00,,0811.7,5.00,0.00,22.8,22.3,00.0,31.9,24.6,20.9,0000.0,0006.34,0003.05,0002.46
2021-10-13 08:10:00,,0811.7,5.00,0.00,22.8,22.3,00.0,31.9,24.6,20.9,0000.0,0006.16,0002.99,0002.45
2021-10-13 08:11:00,,0811.8,5.00,0.00,22.8,22.2,00.0,31.9,24.6,20.9,0000.0,0006.22,0003.03,0002.48
2021-10-13 08:12:00,,0812.1,5.01,0.00,22.8,22.2,00.0,31.9,24.6,20.9,0000.0,0006.28,0003.06,0002.50
2021-10-13 08:13:00,,0812.2,4.99,0.00,22.8,22.3,00.0,31.9,24.6,20.9,0000.0,0006.36,0003.09,0002.51
2021-10-13 08:14:00,,0812.1,5.00,0.00,22.8,22.3,00.0,31.9,24.7,20.9,0000.0,0006.47,0003.09,0002.48
2021-10-13 08:15:00,,0812.0,5.01,0.00,22.8,22.3,00.0,31.9,24.7,20.8,0000.0,0006.59,0003.10,0002.48
2021-10-13 08:16:00,,0812.2,4.99,0.00,22.9,22.3,00.0,31.9,24.7,20.8,0000.0,0006.49,0003.14,0002.49
2021-10-13 08:17:00,,0812.2,5.01,0.00,22.9,22.4,00.0,32.0,24.8,20.9,0000.0,0006.35,0003.14,0002.49
2021-10-13 08:18:00,,0812.2,4.98,0.00,22.9,22.4,00.0,32.0,24.8,20.8,0000.0,0005.80,0003.14,0002.48
2021-10-13 08:19:00,,0812.2,5.01,0.00,22.9,22.4,00.0,32.0,24.8,20.8,0000.0,0005.02,0003.15,0002.51
2021-10-13 08:20:00,,0812.1,5.00,0.00,23.0,22.4,00.0,32.0,24.8,20.8,0000.0,0005.12,0003.21,0002.60
2021-10-13 08:21:00,,0811.9,5.00,0.00,23.0,22.4,00.0,32.0,24.8,20.7,0000.0,0005.46,0003.31,0002.69
2021-10-13 08:22:00,,0812.2,4.99,0.00,23.0,22.4,00.0,32.0,24.9,20.7,0000.0,0005.54,0003.36,0002.79
2021-10-13 08:23:00,,0812.4,5.00,0.00,23.0,22.5,00.0,32.0,24.9,20.7,0000.0,0005.66,0003.44,0002.90
2021-10-13 08:24:00,,0812.4,5.01,0.00,23.0,22.5,00.0,32.0,24.9,20.7,0000.0,0005.65,0003.48,0003.02
2021-10-13 08:25:00,,0812.5,4.99,0.00,23.1,22.5,00.0,32.1,24.9,20.6,0000.0,0005.74,0003.58,0003.15
2021-10-13 08:26:00,,0812.5,4.99,0.00,23.1,22.5,00.0,32.1,24.9,20.7,0000.0,0005.72,0003.64,0003.22
2021-10-13 08:27:00,,0812.5,5.01,0.00,23.1,22.5,00.0,32.1,24.9,20.7,0000.0,0005.55,0003.70,0003.30
2021-10-13 08:28:00,,0812.5,4.99,0.00,23.1,22.5,00.0,32.1,24.9,20.7,0000.0,0005.74,0003.81,0003.41
2021-10-13 08:29:00,,0812.5,5.00,0.00,23.1,22.5,00.0,32.1,24.9,20.8,0000.0,0005.88,0003.91,0003.51
2021-10-13 08:30:00,,0812.6,5.00,0.00,23.1,22.5,00.0,32.1,24.9,20.8,0000.0,0006.01,0003.99,0003.59
2021-10-13 08:31:00,,0812.6,4.99,0.00,23.0,22.4,00.0,32.1,24.8,20.9,0000.0,0006.18,0004.08,0003.66
2021-10-13 08:32:00,,0812.7,5.01,0.00,23.0,22.4,00.0,32.1,24.8,20.9,0000.0,0006.24,0004.15,0003.72
2021-10-13 08:33:00,,0812.7,5.00,0.00,23.0,22.4,00.0,32.1,24.8,20.9,0000.0,0006.24,0004.19,0003.78
2021-10-13 08:34:00,,0812.9,5.01,0.00,23.0,22.4,00.0,32.1,24.8,20.9,0000.0,0006.32,0004.23,0003.82
2021-10-13 08:35:00,,0812.9,5.00,0.00,23.0,22.4,00.0,32.1,24.8,20.9,0000.0,0006.52,0004.28,0003.88
2021-10-13 08:36:00,,0812.7,5.00,0.00,23.0,22.3,00.0,32.1,24.8,20.9,0000.0,0006.82,0004.32,0003.93
2021-10-13 08:37:00,,0812.7,5.00,0.00,23.0,22.3,00.0,32.1,24.8,20.9,0000.0,0006.89,0004.36,0003.97
2021-10-13 08:38:00,,0812.6,5.00,0.00,23.0,22.3,00.0,32.1,24.8,20.9,0000.0,0006.98,0004.40,0004.00
2021-10-13 08:39:00,,0812.7,5.00,0.00,23.0,22.3,00.0,32.1,24.8,21.0,0000.0,0006.99,0004.41,0004.01
2021-10-13 08:40:00,,0812.7,4.99,0.00,22.9,22.2,00.0,32.1,24.7,21.0,0000.0,0006.91,0004.40,0004.00
2021-10-13 08:41:00,,0812.8,5.00,0.00,22.9,22.2,00.0,32.1,24.7,21.0,0000.0,0006.93,0004.40,0003.99
2021-10-13 08:42:00,,0812.8,5.00,0.00,22.9,22.2,00.0,32.1,24.6,21.0,0000.0,0006.79,0004.34,0003.96
2021-10-13 08:43:00,,0812.6,5.01,0.00,22.9,22.2,00.0,32.1,24.6,21.0,0000.0,0006.71,0004.29,0003.92
2021-10-13 08:44:00,,0812.6,5.00,0.00,22.8,22.1,00.0,32.1,24.6,21.0,0000.0,0006.61,0004.23,0003.86
2021-10-13 08:45:00,,0812.8,4.99,0.00,22.8,22.1,00.0,32.0,24.5,21.0,0000.0,0006.72,0004.14,0003.79
2021-10-13 08:46:00,,0812.8,5.00,0.00,22.8,22.1,00.0,32.0,24.5,21.0,0000.0,0007.26,0004.06,0003.71
2021-10-13 08:47:00,,0812.8,5.01,0.00,22.8,22.1,00.0,32.0,24.6,21.0,0000.0,0006.68,0003.96,0003.63
2021-10-13 08:48:00,,0812.9,4.99,0.00,22.8,22.1,00.0,32.0,24.5,21.0,0000.0,0006.60,0003.89,0003.54
2021-10-13 08:49:00,,0813.0,5.00,0.00,22.8,22.1,00.0,32.0,24.5,21.0,0000.0,0006.36,0003.77,0003.44
2021-10-13 08:50:00,,0813.1,5.00,0.00,22.8,22.1,00.0,32.0,24.5,21.0,0000.0,0006.10,0003.67,0003.35
2021-10-13 08:51:00,,0813.1,5.01,0.00,22.8,22.2,00.0,32.0,24.6,20.9,0000.0,0005.92,0003.56,0003.27
2021-10-13 08:52:00,,0813.3,5.01,0.00,22.8,22.2,00.0,32.0,24.6,20.8,0000.0,0005.81,0003.46,0003.19
2021-10-13 08:53:00,,0813.3,5.00,0.00,22.8,22.2,00.0,32.0,24.7,20.8,0000.0,0005.70,0003.38,0003.12
2021-10-13 08:54:00,,0813.5,4.98,0.00,22.9,22.2,00.0,32.0,24.7,20.7,0000.0,0005.41,0003.30,0003.02
2021-10-13 08:55:00,,0813.3,5.00,0.00,22.9,22.3,00.0,32.0,24.7,20.5,0000.0,0005.21,0003.22,0002.91
2021-10-13 08:56:00,,0813.5,4.99,0.00,22.9,22.3,00.0,32.0,24.8,20.3,0000.0,0004.80,0003.13,0002.75
2021-10-13 08:57:00,,0813.3,5.01,0.00,22.9,22.3,00.0,32.0,24.8,20.2,0000.0,0003.83,0002.99,0002.60
2021-10-13 08:58:00,,0813.0,5.01,0.00,23.0,22.3,00.0,32.0,24.8,20.0,0000.0,0003.62,0002.81,0002.42
2021-10-13 08:59:00,,0812.9,5.00,0.00,23.0,22.3,00.0,32.0,24.8,19.9,0000.0,0003.34,0002.59,0002.26
